World > North America > United States > Washington

Hourly Crown Hill, WA Regional Weather

Feedback E-mail the Weather

Quick WX

Crown Hill, WA Weather Maps

°F °C°F °C
Crown Hill Weather Map
UTC Time: 7/2/2022, 02:26
Your Time:

Crown Hill, WA Regional Weather

Expires:202207020300;;526427
ASUS46 KSEW 020220
RWRWA 

WASHINGTON REGIONAL WEATHER ROUNDUP
NATIONAL WEATHER SERVICE SEATTLE WA
700 PM PDT FRI JUL 01 2022

NOTE:"FAIR" INDICATES FEW OR NO CLOUDS BELOW 12,000 FEET WITH NO 
SIGNIFICANT WEATHER AND/OR OBSTRUCTIONS TO VISIBILITY.


WAZ507-509-555>559-020300-
SEATTLE, TACOMA, EVERETT, AND VICINITY
  
CITY           SKY/WX    TMP DP  RH WIND       PRES   REMARKS
EVERETT        SUNNY     63  51  65 N13G23    30.03F                  
BOEING FIELD   SUNNY     74  56  53 VRB5      29.99F                  
RENTON         PTSUNNY   76  56  49 W5        29.99F                  
SEATAC AIRPORT MOSUNNY   72  55  55 SW9       30.01F                  
JBLM-MCCHORD   SUNNY     71  57  61 W8        30.01F                  
PUYALLUP       FAIR      75  55  50 CALM      30.02F                  
BREMERTON      SUNNY     70  58  65 SW9       30.02F                  
JBLM-FT LEWIS  SUNNY     69  56  61 W12       30.01S                  
TACOMA NARROWS SUNNY     70  57  63 W7        30.02F                  
$$
 

SKY/WX - Weather  TMP - Temperature  DP - Dew Point  RH - Humidity
WIND - Wind Direction/Speed PRES - Barometric Pressure VSB - Visibility
WCI - Wind Chill Index E13G22 Wind - East Wind 13 mph/Gusts of 22 mph

Trending Headlines

Crown Hill Radar Loop



Crown Hill Quick Facts


National Two Day Weather Forecast


E-mail the Crown Hill Weather Forecast

Voice your opinion or tell us about page issues...